[[{"header":{"parameterUnit":"m.s-1","parameterCategory":2,"la1":30.2991,"la2":30.254,"lo1":-89.0895,"lo2":-89.0444,"dy":0.0017,"dx":0.0017,"nx":28,"ny":28,"refTime":"2024-03-17T03:00:00:Z","depth":"0","parameterNumber":2,"parameterNumberName":"U-component_of_CURRENTS"},"data":[0,0,0,0,0,0,0,0,0,0,0,0,0,0,0,0,0,0,0,0,0,0,0,0,0,0,0,0,0,0,0,0,0,0,0,0,0,0,0,0,0,0,0,0,0,0,0,0,0,0,0,0,0,0,0,0,0,0,0.3155,0.3155,0,0.3196,0.3197,0.3197,0.3196,0.3196,0.3196,0.3196,0.3226,0.3227,0.3228,0,0,0,0,0,0,0,0,0,0,0,0,0,0.3084,0.3084,0.3154,0.3155,0.3156,0.3196,0.3197,0.3197,0.3196,0.3196,0.3196,0.3196,0.3225,0.3227,0.3228,0,0,0,0,0,0,0,0,0,0,0,0,0,0.3115,0.3085,0.3154,0.3164,0.3166,0.3196,0.3197,0.3197,0.3196,0.3196,0.3196,0.3195,0.3225,0.3226,0.3228,0.3242,0,0,0.3232,0.3233,0,0,0,0,0,0,0,0,0.3113,0.3117,0.3162,0.3163,0.3165,0.3195,0.3183,0.3213,0.3196,0.318,0.3196,0.3195,0.3217,0.3219,0.3222,0.3243,0.3244,0.3232,0.3233,0.3234,0.3234,0,0,0,0,0,0,0,0.3111,0.3115,0.3167,0.3163,0.3165,0.317,0.3173,0.3188,0.3196,0.3181,0.3183,0.3194,0.3217,0.322,0.3222,0.3245,0.3232,0.3234,0.3234,0.3235,0.3322,0.3323,0,0,0,0,0,0,0.3114,0.3113,0.3165,0.3168,0.3143,0.3172,0.3175,0.3182,0.3196,0.3199,0.3194,0.3194,0.3218,0.3221,0.3224,0.3288,0.3234,0.3235,0.3236,0.332,0.3322,0.3323,0,0,0,0,0,0,0.3112,0.3118,0.3164,0.3145,0.3152,0.3174,0.3181,0.3183,0.3194,0.3207,0.3209,0.3205,0.3218,0.3222,0.3252,0.3288,0.3236,0.3237,0.3318,0.3321,0.3323,0.3387,0,0,0,0,0,0,0.311,0.3117,0.3118,0.3145,0.3153,0.3193,0.3181,0.3184,0.3204,0.3204,0.3217,0.3218,0.3218,0.325,0.3254,0.3289,0.3238,0.3317,0.3319,0.3322,0.3383,0.3391,0.3398,0,0,0,0,0,0.3107,0.3111,0.3117,0.3124,0.3155,0.3195,0.3199,0.321,0.3204,0.3217,0.3228,0.3218,0.327,0.3253,0.3256,0.3292,0.3315,0.3319,0.3322,0.338,0.339,0.3398,0,0,0,0,0,0,0.3079,0.3112,0.312,0.3132,0.3168,0.3196,0.3207,0.3217,0.3234,0.3232,0.3236,0.324,0.3283,0.3277,0.3257,0.3325,0.3292,0.3296,0.3335,0.3344,0.3351,0.3377,0.3239,0,0,0,0,0,0.3075,0.3084,0.3126,0.3136,0.3156,0.3183,0.3198,0.3212,0.3234,0.3241,0.3251,0.3267,0.3298,0.3311,0.3329,0.3364,0.3393,0.3389,0.3397,0.3403,0.3427,0.3499,0.3516,0.3334,0.3334,0.3334,0,0,0.3067,0.3086,0.3091,0.3131,0.3155,0.3193,0.319,0.3222,0.3257,0.3243,0.3281,0.3294,0.3313,0.3357,0.3375,0.3357,0.3471,0.3407,0.3413,0.3434,0.3504,0.3522,0.3538,0.3336,0.3336,0.3336,0,0,0.3066,0.3077,0.3092,0.3125,0.3171,0.3197,0.3211,0.3251,0.3271,0.3312,0.3319,0.3358,0.3383,0.3418,0.3437,0.3497,0.351,0.3495,0.3555,0.3624,0.364,0.3654,0.3721,0.3741,0.3497,0.3497,0.3497,0,0.3055,0.3084,0.3104,0.3137,0.3174,0.3204,0.3248,0.3276,0.3319,0.3355,0.3331,0.3414,0.342,0.3508,0.3527,0.3518,0.3556,0.3518,0.3636,0.3651,0.3664,0.3729,0.375,0.35,0.35,0.35,0.3499,0,0.3076,0.3105,0.3121,0.3175,0.3215,0.3256,0.3312,0.3351,0.3375,0.341,0.3491,0.3507,0.3563,0.3568,0.3567,0.3673,0.367,0.3639,0.3615,0.3687,0.375,0.3771,0.3505,0.3504,0.3503,0.3502,0,0,0.3044,0.3121,0.3127,0.317,0.3243,0.3283,0.3353,0.344,0.3495,0.3534,0.3615,0.367,0.3684,0.3707,0.3715,0.3771,0.3893,0.375,0.3752,0.3822,0.4059,0.4067,0.409,0.3885,0.3888,0.3891,0.4066,0,0.3062,0.3129,0.3167,0.3246,0.3298,0.3359,0.3424,0.3502,0.3558,0.3636,0.3691,0.3754,0.3736,0.3763,0.3827,0.3878,0.3951,0.385,0.3975,0.3979,0.3982,0.4115,0.3924,0.4066,0.4086,0.409,0.4092,0,0.3075,0.3126,0.32,0.3307,0.3335,0.3382,0.3507,0.3568,0.3685,0.3729,0.3815,0.385,0.3963,0.391,0.4074,0.4012,0.4055,0.4083,0.4089,0.4093,0.4028,0.3996,0.4103,0.3981,0.4124,0.4122,0.412,0,0.3055,0.3154,0.3215,0.3249,0.3363,0.3415,0.3482,0.3596,0.367,0.379,0.3863,0.3973,0.4055,0.4125,0.4211,0.4148,0.4384,0.4293,0.4349,0.4348,0.4212,0.4194,0.422,0.442,0.4419,0.4419,0.4418,0,0.306,0.3111,0.3208,0.324,0.3327,0.341,0.3512,0.3587,0.3713,0.381,0.3908,0.4016,0.4116,0.4257,0.4283,0.4421,0.4455,0.4412,0.4416,0.4228,0.4211,0.4117,0.406,0.4425,0.4424,0.4423,0.4422,0,0.302,0.308,0.3158,0.3275,0.3314,0.3373,0.352,0.3592,0.3721,0.3855,0.3901,0.4098,0.4282,0.44,0.4542,0.454,0.4513,0.4664,0.4448,0.4425,0.4311,0.4265,0.4206,0.4084,0.4734,0.4736,0.4737,0,0.3005,0.3039,0.3158,0.3202,0.3251,0.3356,0.3423,0.3564,0.3645,0.3898,0.3958,0.4206,0.4349,0.4612,0.4665,0.477,0.4601,0.4637,0.4476,0.4337,0.4288,0.4109,0.3994,0.4315,0.4313,0.4311,0.4309,0,0.2989,0.3024,0.3088,0.317,0.3239,0.3321,0.3431,0.3497,0.3668,0.3809,0.4002,0.4142,0.4429,0.4485,0.4668,0.4677,0.4401,0.4604,0.4503,0.4032,0.3793,0.3663,0.4172,0.4293,0.4295,0.4296,0.4297,0.4297,0.2975,0.3003,0.308,0.3148,0.3218,0.3268,0.3301,0.3425,0.355,0.3717,0.3924,0.4078,0.4244,0.448,0.4489,0.4382,0.4351,0.4201,0.4182,0.4033,0.3833,0.4336,0.4433,0.4435,0.4437,0.4439,0.4441,0,0.2965,0.3,0.306,0.3126,0.315,0.3208,0.3288,0.3291,0.338,0.3577,0.3738,0.389,0.397,0.4069,0.4102,0.397,0.3739,0.3835,0.3493,0.342,0.3908,0.3806,0.3717,0.3717,0.3717,0.3717,0.3717,0.3718,0.2966,0.3001,0.3018,0.3042,0.3072,0.3055,0.3065,0.3077,0.3169,0.3265,0.3351,0.3502,0.3711,0.3833,0.3729,0.3624,0.3325,0.318,0.3192,0.3493,0.3522,0.3549,0.3439,0.3275,0.3274,0.2505,0.2499,0.2495]},{"header":{"parameterUnit":"m.s-1","parameterCategory":2,"la1":30.2991,"la2":30.254,"lo1":-89.0895,"lo2":-89.0444,"dy":0.0017,"dx":0.0017,"nx":28,"ny":28,"refTime":"2024-03-17T03:00:00:Z","depth":"0","parameterNumber":3,"parameterNumberName":"V-component_of_CURRENTS"},"data":[0,0,0,0,0,0,0,0,0,0,0,0,0,0,0,0,0,0,0,0,0,0,0,0,0,0,0,0,0,0,0,0,0,0,0,0,0,0,0,0,0,0,0,0,0,0,0,0,0,0,0,0,0,0,0,0,0,0,-0.0462,-0.0463,0,-0.0531,-0.0532,-0.0532,-0.0581,-0.0582,-0.0582,-0.0582,-0.0713,-0.0716,-0.072,0,0,0,0,0,0,0,0,0,0,0,0,0,-0.0439,-0.0438,-0.0462,-0.0463,-0.0464,-0.0531,-0.0532,-0.0533,-0.0581,-0.0582,-0.0582,-0.0583,-0.0712,-0.0716,-0.072,0,0,0,0,0,0,0,0,0,0,0,0,0,-0.0472,-0.0438,-0.0462,-0.0497,-0.05,-0.0531,-0.0532,-0.0533,-0.0581,-0.0582,-0.0582,-0.0583,-0.0711,-0.0716,-0.072,-0.0736,0,0,-0.0735,-0.0737,0,0,0,0,0,0,0,0,-0.047,-0.0472,-0.0491,-0.0494,-0.0498,-0.0548,-0.0571,-0.0604,-0.0581,-0.055,-0.0582,-0.0583,-0.0664,-0.0672,-0.0683,-0.0743,-0.0748,-0.0735,-0.0738,-0.074,-0.0741,0,0,0,0,0,0,0,-0.0467,-0.047,-0.0489,-0.0491,-0.0496,-0.0531,-0.0536,-0.0578,-0.0604,-0.0553,-0.0557,-0.0564,-0.0666,-0.0678,-0.0686,-0.075,-0.0735,-0.0739,-0.0742,-0.0744,-0.0842,-0.0842,0,0,0,0,0,0,-0.0455,-0.0467,-0.0487,-0.0491,-0.0486,-0.053,-0.0536,-0.0531,-0.0602,-0.0613,-0.0564,-0.0566,-0.067,-0.0681,-0.0691,-0.0721,-0.074,-0.0744,-0.0747,-0.0843,-0.0842,-0.0842,0,0,0,0,0,0,-0.0454,-0.0455,-0.0484,-0.0482,-0.0488,-0.053,-0.0525,-0.0533,-0.0545,-0.061,-0.0622,-0.0569,-0.0671,-0.0685,-0.0725,-0.0727,-0.0746,-0.075,-0.0843,-0.0842,-0.0842,-0.0778,0,0,0,0,0,0,-0.0453,-0.0454,-0.0442,-0.0481,-0.0488,-0.0494,-0.0525,-0.0533,-0.0549,-0.0553,-0.0618,-0.0631,-0.0672,-0.0717,-0.0729,-0.0734,-0.0754,-0.0843,-0.0843,-0.0842,-0.078,-0.0776,-0.0772,0,0,0,0,0,-0.0451,-0.0426,-0.0441,-0.0443,-0.0471,-0.0493,-0.0499,-0.0532,-0.0549,-0.0547,-0.0593,-0.0629,-0.0724,-0.0721,-0.0735,-0.0741,-0.0843,-0.0843,-0.0842,-0.0782,-0.0777,-0.0772,0,0,0,0,0,0,-0.0407,-0.043,-0.0447,-0.043,-0.0458,-0.0501,-0.0498,-0.0527,-0.056,-0.0562,-0.0627,-0.0643,-0.0679,-0.0716,-0.0711,-0.0768,-0.079,-0.0792,-0.0739,-0.0734,-0.073,-0.07,-0.0758,0,0,0,0,0,-0.0391,-0.038,-0.0417,-0.0404,-0.0413,-0.0456,-0.0468,-0.0491,-0.0528,-0.0543,-0.059,-0.064,-0.0687,-0.0714,-0.0756,-0.0787,-0.0807,-0.08,-0.0796,-0.0792,-0.0776,-0.0823,-0.0821,-0.0841,-0.0841,-0.0841,0,0,-0.0374,-0.0382,-0.0378,-0.0394,-0.0416,-0.042,-0.0464,-0.0473,-0.048,-0.0553,-0.0572,-0.0626,-0.0691,-0.0725,-0.0745,-0.0758,-0.079,-0.0791,-0.0787,-0.0774,-0.0822,-0.082,-0.0818,-0.0841,-0.0841,-0.0841,0,0,-0.0331,-0.0337,-0.0317,-0.0333,-0.0357,-0.0384,-0.0384,-0.0425,-0.0446,-0.0473,-0.0531,-0.0582,-0.0644,-0.0697,-0.0732,-0.0728,-0.0764,-0.0743,-0.0701,-0.0747,-0.0745,-0.0744,-0.0738,-0.0737,-0.0744,-0.0743,-0.0743,0,-0.0308,-0.029,-0.0317,-0.0304,-0.031,-0.0363,-0.0351,-0.0378,-0.0429,-0.0443,-0.0467,-0.0567,-0.0631,-0.0684,-0.0686,-0.0719,-0.0729,-0.0716,-0.074,-0.074,-0.074,-0.0734,-0.0734,-0.074,-0.0741,-0.0741,-0.0741,0,-0.0258,-0.0247,-0.0235,-0.0237,-0.0245,-0.0242,-0.0283,-0.0295,-0.0329,-0.0365,-0.0414,-0.05,-0.0559,-0.0596,-0.0643,-0.068,-0.0679,-0.0727,-0.075,-0.0734,-0.0728,-0.0729,-0.0736,-0.0737,-0.0738,-0.0739,0,0,-0.0202,-0.02,-0.0196,-0.0188,-0.0209,-0.0209,-0.0213,-0.0238,-0.0235,-0.03,-0.0307,-0.0415,-0.0461,-0.0503,-0.0578,-0.0628,-0.0644,-0.0669,-0.0673,-0.0653,-0.0699,-0.0651,-0.0647,-0.0696,-0.0697,-0.0697,-0.0683,0,-0.0159,-0.012,-0.0133,-0.0103,-0.009,-0.0127,-0.0121,-0.0147,-0.0185,-0.0201,-0.03,-0.0339,-0.0426,-0.0454,-0.0518,-0.0612,-0.0647,-0.064,-0.0724,-0.0725,-0.0679,-0.0648,-0.0601,-0.0582,-0.0684,-0.0684,-0.0685,0,-0.0107,-0.0089,-0.0047,-0.0033,-0.0028,-0.0017,-0.0013,-0.0013,-0.0055,-0.0086,-0.0148,-0.0215,-0.0298,-0.0375,-0.051,-0.0497,-0.0582,-0.0658,-0.066,-0.0638,-0.068,-0.0622,-0.058,-0.0796,-0.0686,-0.0686,-0.0686,0,-0.0051,-0.0029,0.001,0.0014,0.0025,0.004,0.0045,0.0024,0.0051,-0.0011,0.0009,-0.0118,-0.0146,-0.029,-0.0433,-0.0474,-0.0556,-0.064,-0.0671,-0.0667,-0.0653,-0.0647,-0.0824,-0.0726,-0.0726,-0.0726,-0.0727,0,0.0006,0.0033,0.004,0.0065,0.0125,0.0105,0.0167,0.0146,0.0155,0.0221,0.0081,0.0118,-0.0127,-0.0199,-0.0369,-0.0486,-0.0505,-0.0637,-0.0662,-0.0625,-0.0617,-0.0827,-0.0948,-0.0726,-0.0726,-0.0726,-0.0726,0,0.0066,0.0069,0.0122,0.0144,0.0159,0.0208,0.0271,0.0318,0.0306,0.0392,0.0389,0.0308,0.0223,0.001,-0.0199,-0.0364,-0.0615,-0.0559,-0.0466,-0.048,-0.0729,-0.0845,-0.1004,-0.1096,-0.0597,-0.0596,-0.0595,0,0.01,0.0133,0.0194,0.0246,0.0261,0.0326,0.0386,0.0393,0.0461,0.0539,0.0604,0.0551,0.0564,0.0294,-0.0018,-0.0274,-0.0519,-0.0434,-0.0529,-0.0712,-0.0862,-0.0961,-0.1036,-0.0477,-0.0475,-0.0473,-0.0472,0,0.0168,0.0195,0.025,0.0349,0.042,0.0513,0.0595,0.0681,0.0735,0.0835,0.0976,0.1004,0.0775,0.0537,0.0157,-0.0047,-0.057,-0.0408,-0.0648,-0.0808,-0.0878,-0.0987,-0.049,-0.0458,-0.046,-0.0461,-0.0461,-0.0462,0.0228,0.0288,0.0365,0.0463,0.0561,0.0694,0.0792,0.0915,0.1085,0.1288,0.1296,0.1425,0.0999,0.0508,0.0185,-0.0403,-0.0444,-0.0614,-0.0741,-0.0825,-0.0922,-0.0355,-0.0329,-0.0329,-0.033,-0.033,-0.0331,0,0.0301,0.0368,0.0466,0.06,0.0729,0.0754,0.0936,0.1066,0.1305,0.1542,0.1711,0.1633,0.1127,0.0557,-0.0247,-0.0686,-0.0878,-0.0938,-0.1114,-0.1179,-0.0714,-0.072,-0.0715,-0.0715,-0.0715,-0.0715,-0.0714,-0.0714,0.0348,0.0453,0.0502,0.0719,0.0821,0.1,0.1118,0.1337,0.1542,0.1871,0.2025,0.2091,0.1617,0.0135,-0.0899,-0.1131,-0.1469,-0.1488,-0.1693,-0.1431,-0.1413,-0.1396,-0.1434,-0.1579,-0.158,-0.2106,-0.2112,-0.2116]}],[{"header":{"parameterUnit":"m.s-1","parameterCategory":2,"la1":30.2991,"la2":30.254,"lo1":-89.0895,"lo2":-89.0444,"dy":0.0017,"dx":0.0017,"nx":28,"ny":28,"refTime":"2024-03-17T03:00:00:Z","depth":"2","parameterNumber":2,"parameterNumberName":"U-component_of_CURRENTS"},"data":[0,0,0,0,0,0,0,0,0,0,0,0,0,0,0,0,0,0,0,0,0,0,0,0,0,0,0,0,0,0,0,0,0,0,0,0,0,0,0,0,0,0,0,0,0,0,0,0,0,0,0,0,0,0,0,0,0,0,0.2573,0.2574,0,0.2629,0.2629,0.263,0.2653,0.2653,0.2653,0.2653,0.2692,0.2693,0.2694,0,0,0,0,0,0,0,0,0,0,0,0,0,0.2529,0.253,0.2573,0.2574,0.2575,0.2629,0.2629,0.263,0.2653,0.2653,0.2653,0.2653,0.2692,0.2693,0.2694,0,0,0,0,0,0,0,0,0,0,0,0,0,0.2562,0.253,0.2573,0.2593,0.2596,0.2628,0.2629,0.263,0.2653,0.2653,0.2653,0.2653,0.2691,0.2693,0.2694,0.2706,0,0,0.2699,0.27,0,0,0,0,0,0,0,0,0.256,0.2563,0.259,0.2592,0.2595,0.2635,0.2628,0.2655,0.2653,0.2631,0.2653,0.2653,0.2672,0.2675,0.2685,0.2707,0.2709,0.27,0.2701,0.2701,0.2702,0,0,0,0,0,0,0,0.2558,0.2562,0.2594,0.259,0.2594,0.2614,0.2618,0.2634,0.265,0.2633,0.2635,0.2642,0.2673,0.2683,0.2686,0.271,0.2699,0.2701,0.2702,0.2703,0.2813,0.2815,0,0,0,0,0,0,0.255,0.2559,0.2593,0.2596,0.2578,0.2615,0.2619,0.2621,0.265,0.2655,0.2642,0.2643,0.268,0.2684,0.2687,0.2768,0.2701,0.2703,0.2704,0.2811,0.2813,0.2815,0,0,0,0,0,0,0.2549,0.2553,0.259,0.258,0.2586,0.2615,0.2618,0.2622,0.2648,0.2658,0.2662,0.2664,0.2681,0.2685,0.2725,0.2767,0.2703,0.2705,0.2809,0.2812,0.2814,0.2887,0,0,0,0,0,0,0.2547,0.2552,0.2557,0.2579,0.2587,0.2622,0.2618,0.2624,0.2652,0.2654,0.2678,0.268,0.2681,0.2723,0.2727,0.2768,0.2706,0.2806,0.281,0.2813,0.2882,0.2892,0.2901,0,0,0,0,0,0.2546,0.255,0.2557,0.2562,0.2591,0.2623,0.2629,0.2649,0.2653,0.2671,0.2693,0.268,0.2749,0.2726,0.273,0.2773,0.2804,0.2809,0.2813,0.2878,0.289,0.29,0,0,0,0,0,0,0.2523,0.2554,0.2561,0.2572,0.2602,0.2628,0.2645,0.266,0.2691,0.2697,0.2703,0.2708,0.2763,0.2756,0.273,0.2816,0.2776,0.2781,0.2824,0.2835,0.2844,0.2869,0.2707,0,0,0,0,0,0.2523,0.2543,0.257,0.2581,0.2596,0.2625,0.2643,0.2661,0.2688,0.2702,0.2722,0.2747,0.2782,0.2798,0.2823,0.2864,0.2883,0.2896,0.2905,0.2913,0.2937,0.3008,0.3026,0.283,0.283,0.283,0,0,0.252,0.2537,0.255,0.258,0.2603,0.2637,0.2636,0.2671,0.271,0.2701,0.276,0.2781,0.2801,0.2856,0.2879,0.2856,0.2976,0.2918,0.2925,0.2945,0.3015,0.3034,0.3051,0.2833,0.2832,0.2832,0,0,0.2525,0.2538,0.256,0.259,0.2631,0.2654,0.2668,0.2709,0.274,0.2792,0.2808,0.2857,0.2893,0.293,0.2949,0.3023,0.3026,0.3029,0.3094,0.3163,0.318,0.3195,0.3234,0.3252,0.303,0.303,0.303,0,0.2526,0.2548,0.2572,0.2602,0.2636,0.2664,0.2704,0.2739,0.2793,0.2833,0.2818,0.2917,0.2932,0.3017,0.3055,0.3046,0.3078,0.3048,0.3176,0.3192,0.3206,0.3242,0.3261,0.3034,0.3034,0.3033,0.3033,0,0.2543,0.2573,0.2589,0.2642,0.2682,0.272,0.2774,0.2822,0.2857,0.2896,0.2986,0.3013,0.3075,0.3089,0.31,0.3217,0.3204,0.3182,0.3148,0.3231,0.3262,0.3281,0.304,0.3039,0.3037,0.3036,0,0,0.252,0.2592,0.2598,0.2639,0.2711,0.2746,0.2824,0.2906,0.2964,0.3017,0.3103,0.3173,0.3197,0.3223,0.3241,0.3305,0.3433,0.3302,0.3304,0.3341,0.3582,0.3494,0.3505,0.3442,0.3446,0.3449,0.3559,0,0.2533,0.2593,0.2631,0.2708,0.2753,0.2818,0.2883,0.2965,0.3032,0.3119,0.3177,0.3254,0.3244,0.3285,0.3356,0.342,0.3489,0.3405,0.3498,0.35,0.3412,0.3526,0.3265,0.3336,0.3577,0.358,0.3583,0,0.2539,0.2585,0.2657,0.2758,0.2782,0.2834,0.296,0.3032,0.3159,0.32,0.3294,0.3343,0.3465,0.3431,0.3584,0.3537,0.3585,0.3615,0.3619,0.3529,0.3448,0.3296,0.336,0.3613,0.3611,0.3609,0.3607,0,0.2518,0.2607,0.2668,0.2703,0.2811,0.287,0.2946,0.3067,0.3145,0.3281,0.3352,0.3457,0.3535,0.362,0.37,0.3664,0.3854,0.3794,0.3752,0.3744,0.3537,0.3504,0.3916,0.3916,0.3916,0.3916,0.3915,0,0.2521,0.2569,0.2665,0.27,0.2783,0.2876,0.2983,0.3061,0.3196,0.3293,0.341,0.3495,0.3598,0.3714,0.3758,0.3823,0.39,0.3801,0.3787,0.3551,0.352,0.3766,0.3747,0.392,0.3919,0.3918,0.3917,0,0.2487,0.2548,0.2619,0.2731,0.2777,0.2845,0.3,0.3077,0.3209,0.335,0.3406,0.3566,0.3696,0.379,0.3916,0.3888,0.3952,0.3953,0.3658,0.3607,0.3776,0.376,0.3911,0.3909,0.3908,0.3907,0.3906,0,0.2472,0.2515,0.2621,0.2673,0.2729,0.2843,0.2922,0.3061,0.3143,0.3377,0.3437,0.3627,0.3695,0.385,0.3859,0.391,0.3967,0.3669,0.3547,0.3815,0.3787,0.3772,0.3758,0.3295,0.3289,0.3285,0.3281,0,0.2466,0.2502,0.2553,0.2642,0.273,0.2809,0.2935,0.2973,0.3144,0.3254,0.3388,0.3476,0.3651,0.3569,0.3649,0.3636,0.3632,0.357,0.3967,0.333,0.3242,0.3211,0.3216,0.3237,0.3242,0.3245,0.3247,0.3249,0.2457,0.2468,0.2539,0.2606,0.2693,0.2732,0.2748,0.2857,0.2932,0.3026,0.3198,0.3239,0.3322,0.3293,0.3241,0.322,0.3447,0.3286,0.3299,0.3317,0.3219,0.3133,0.3088,0.3092,0.3094,0.3097,0.3099,0,0.2436,0.2453,0.2511,0.2566,0.2584,0.2681,0.2719,0.2669,0.2667,0.2805,0.2869,0.2707,0.2702,0.2804,0.2722,0.2742,0.2687,0.2621,0.2526,0.2574,0.2616,0.2478,0.2153,0.2149,0.2146,0.2143,0,0,0.2433,0.2436,0.2427,0.2421,0.2474,0.244,0.2411,0.2363,0.2372,0.2302,0.233,0.254,0.2707,0.2372,0.2368,0.2239,0.2366,0.2154,0.2927,0.2863,0.2898,0.3033,0.2881,0,0,0,0,0]},{"header":{"parameterUnit":"m.s-1","parameterCategory":2,"la1":30.2991,"la2":30.254,"lo1":-89.0895,"lo2":-89.0444,"dy":0.0017,"dx":0.0017,"nx":28,"ny":28,"refTime":"2024-03-17T03:00:00:Z","depth":"2","parameterNumber":3,"parameterNumberName":"V-component_of_CURRENTS"},"data":[0,0,0,0,0,0,0,0,0,0,0,0,0,0,0,0,0,0,0,0,0,0,0,0,0,0,0,0,0,0,0,0,0,0,0,0,0,0,0,0,0,0,0,0,0,0,0,0,0,0,0,0,0,0,0,0,0,0,0.0051,0.005,0,-0.0022,-0.0023,-0.0024,-0.0077,-0.0077,-0.0077,-0.0078,-0.0179,-0.0181,-0.0183,0,0,0,0,0,0,0,0,0,0,0,0,0,0.007,0.007,0.0051,0.005,0.0049,-0.0021,-0.0023,-0.0024,-0.0077,-0.0077,-0.0078,-0.0078,-0.0178,-0.0181,-0.0184,0,0,0,0,0,0,0,0,0,0,0,0,0,0.0035,0.0071,0.0051,0.0016,0.0012,-0.0021,-0.0023,-0.0024,-0.0077,-0.0077,-0.0078,-0.0078,-0.0177,-0.018,-0.0184,-0.0198,0,0,-0.0195,-0.0197,0,0,0,0,0,0,0,0,0.0037,0.0034,0.0022,0.0018,0.0014,-0.0039,-0.0053,-0.0083,-0.0077,-0.0045,-0.0078,-0.0078,-0.0133,-0.014,-0.0155,-0.0203,-0.0207,-0.0196,-0.0198,-0.0199,-0.02,0,0,0,0,0,0,0,0.0039,0.0036,0.002,0.0021,0.0016,-0.0021,-0.0026,-0.0059,-0.0088,-0.0048,-0.0051,-0.0056,-0.0136,-0.0152,-0.0158,-0.0209,-0.0195,-0.0199,-0.0201,-0.0202,-0.028,-0.028,0,0,0,0,0,0,0.0057,0.0039,0.0022,0.0018,0.0027,-0.0021,-0.0027,-0.0023,-0.0087,-0.0096,-0.0056,-0.0058,-0.0145,-0.0154,-0.0162,-0.0173,-0.0199,-0.0203,-0.0205,-0.028,-0.028,-0.028,0,0,0,0,0,0,0.0058,0.0056,0.0025,0.0028,0.0021,-0.002,-0.0016,-0.0024,-0.004,-0.0092,-0.0103,-0.0063,-0.0146,-0.0157,-0.0184,-0.0177,-0.0204,-0.0208,-0.0281,-0.028,-0.028,-0.02,0,0,0,0,0,0,0.0059,0.0057,0.0063,0.0029,0.0022,0.0015,-0.0016,-0.0025,-0.0041,-0.0046,-0.0102,-0.0112,-0.0147,-0.0178,-0.0187,-0.0183,-0.021,-0.0281,-0.0281,-0.028,-0.0203,-0.0198,-0.0193,0,0,0,0,0,0.006,0.0074,0.0064,0.0061,0.0032,0.0015,0.0008,-0.0025,-0.0041,-0.0042,-0.0079,-0.011,-0.0184,-0.0181,-0.0192,-0.0188,-0.0281,-0.0281,-0.028,-0.0206,-0.0199,-0.0193,0,0,0,0,0,0,0.0089,0.0069,0.0057,0.0066,0.0046,0.0007,0.0003,-0.0019,-0.005,-0.0055,-0.0106,-0.0118,-0.0142,-0.0176,-0.0171,-0.0211,-0.0239,-0.0241,-0.0178,-0.0172,-0.0167,-0.0139,-0.0213,0,0,0,0,0,0.0099,0.0101,0.0077,0.0083,0.0077,0.004,0.0028,0.0008,-0.0022,-0.0036,-0.0076,-0.0118,-0.015,-0.0168,-0.0205,-0.0222,-0.0253,-0.023,-0.0224,-0.0219,-0.0205,-0.0246,-0.0242,-0.0279,-0.0279,-0.0279,0,0,0.0109,0.0101,0.0099,0.0089,0.0069,0.0072,0.0032,0.0021,0.0023,-0.0042,-0.0057,-0.0102,-0.0152,-0.0173,-0.0187,-0.0199,-0.0225,-0.0219,-0.0214,-0.0203,-0.0245,-0.0241,-0.0238,-0.0279,-0.0279,-0.0279,0,0,0.0137,0.0127,0.0139,0.013,0.0113,0.0094,0.0096,0.0061,0.0045,0.0026,-0.002,-0.0054,-0.0108,-0.0138,-0.016,-0.0147,-0.0198,-0.0168,-0.0116,-0.0156,-0.0152,-0.015,-0.0181,-0.0182,-0.0163,-0.0163,-0.0163,0,0.0149,0.017,0.0139,0.0153,0.0158,0.0112,0.0133,0.0109,0.0069,0.0065,0.0033,-0.0035,-0.0087,-0.0098,-0.0103,-0.0133,-0.0164,-0.0133,-0.0147,-0.0145,-0.0144,-0.0177,-0.0179,-0.0159,-0.016,-0.016,-0.016,0,0.0187,0.0206,0.0215,0.0221,0.0217,0.0229,0.0201,0.0193,0.0164,0.0138,0.0115,0.0047,0.0011,-0.0019,-0.0062,-0.0077,-0.0104,-0.0136,-0.0157,-0.0135,-0.0171,-0.0175,-0.0154,-0.0155,-0.0156,-0.0157,0,0,0.0219,0.0239,0.0245,0.027,0.026,0.0268,0.0273,0.0272,0.0292,0.0231,0.0247,0.0168,0.0125,0.0097,0.0038,-0.0003,-0.0037,-0.0065,-0.0069,-0.0084,-0.012,-0.0134,-0.014,-0.0075,-0.0075,-0.0075,-0.0146,0,0.0265,0.0326,0.0311,0.0365,0.0399,0.0369,0.0393,0.038,0.0353,0.0351,0.0278,0.0258,0.0172,0.0155,0.0101,0.0001,-0.0043,-0.0014,-0.0148,-0.0152,-0.0158,-0.0144,-0.0112,-0.0172,-0.015,-0.0151,-0.0151,0,0.0311,0.0356,0.0422,0.0474,0.0484,0.0502,0.054,0.0542,0.0519,0.051,0.0467,0.0395,0.0329,0.0249,0.0104,0.0124,0.0009,-0.0073,-0.0079,-0.012,-0.0173,-0.0193,-0.018,-0.0158,-0.0158,-0.0157,-0.0157,0,0.0372,0.0431,0.0496,0.0511,0.0555,0.058,0.0592,0.0591,0.0616,0.0593,0.0612,0.0517,0.0483,0.0328,0.0137,0.0115,-0.0021,-0.0074,-0.0189,-0.0192,-0.0203,-0.0206,-0.0177,-0.0177,-0.0176,-0.0176,-0.0176,0,0.0434,0.0485,0.0536,0.0571,0.0668,0.0654,0.0724,0.0735,0.075,0.0804,0.0688,0.0715,0.0498,0.0381,0.0189,0.0002,0.0015,-0.017,-0.0208,-0.0175,-0.0174,-0.0195,-0.0196,-0.0179,-0.0178,-0.0178,-0.0177,0,0.0482,0.0513,0.0595,0.0666,0.0696,0.0754,0.0815,0.0867,0.0874,0.094,0.0937,0.0861,0.0719,0.0493,0.0259,0.0091,-0.0104,-0.0179,-0.012,-0.015,-0.0264,-0.0261,-0.0313,-0.0314,-0.0315,-0.0316,-0.0316,0,0.0513,0.0561,0.0666,0.0733,0.0765,0.0845,0.0914,0.0939,0.0998,0.104,0.109,0.0976,0.0922,0.0583,0.0264,-0.005,-0.0097,-0.0218,-0.0263,-0.0245,-0.0277,-0.0272,-0.0267,-0.0251,-0.0251,-0.0251,-0.0251,0,0.0574,0.0603,0.0677,0.0821,0.0907,0.1009,0.1098,0.1173,0.1216,0.1275,0.1336,0.1283,0.0971,0.0661,0.0239,0.0031,-0.0169,-0.0229,-0.0221,-0.0217,-0.0191,-0.0221,-0.0218,-0.0251,-0.0251,-0.0251,-0.0251,-0.0251,0.062,0.0683,0.0783,0.0917,0.1033,0.1174,0.1261,0.1356,0.1469,0.1554,0.1505,0.1434,0.1091,0.0541,0.0182,-0.0185,-0.0175,-0.0306,-0.0304,-0.0302,-0.0278,-0.0255,-0.0322,-0.0323,-0.0323,-0.0323,-0.0323,0,0.069,0.0758,0.0878,0.1043,0.1183,0.1225,0.1397,0.1478,0.1624,0.1662,0.168,0.135,0.0991,0.0594,0.0041,-0.0286,-0.0308,-0.0375,-0.0339,-0.0336,-0.0333,-0.031,-0.0363,-0.0365,-0.0366,-0.0367,0,0,0.0731,0.0848,0.0906,0.1147,0.1264,0.1447,0.1551,0.1663,0.1727,0.1753,0.1692,0.1575,0.1099,0.0692,0.025,-0.0065,-0.0121,-0.0115,-0.0045,0.0055,0.0061,-0.0252,-0.0207,0,0,0,0,0]}],[{"header":{"parameterUnit":"m.s-1","parameterCategory":2,"la1":30.2991,"la2":30.254,"lo1":-89.0895,"lo2":-89.0444,"dy":0.0017,"dx":0.0017,"nx":28,"ny":28,"refTime":"2024-03-17T03:00:00:Z","depth":"4","parameterNumber":2,"parameterNumberName":"U-component_of_CURRENTS"},"data":[0,0,0,0,0,0,0,0,0,0,0,0,0,0,0,0,0,0,0,0,0,0,0,0,0,0,0,0,0,0,0,0,0,0,0,0,0,0,0,0,0,0,0,0,0,0,0,0,0,0,0,0,0,0,0,0,0,0,0.1588,0.1588,0,0.1653,0.1654,0.1654,0.1707,0.1707,0.1708,0.1709,0.1776,0.1778,0.1779,0,0,0,0,0,0,0,0,0,0,0,0,0,0.1477,0.1479,0.1588,0.1589,0.159,0.1653,0.1654,0.1654,0.1706,0.1707,0.1708,0.1709,0.1776,0.1777,0.1779,0,0,0,0,0,0,0,0,0,0,0,0,0,0.153,0.1479,0.1587,0.1625,0.1629,0.1653,0.1654,0.1655,0.1706,0.1707,0.1708,0.1709,0.1776,0.1777,0.1779,0.1769,0,0,0.1784,0.1785,0,0,0,0,0,0,0,0,0.1527,0.1534,0.1618,0.1622,0.1627,0.1674,0.164,0.1694,0.1706,0.1675,0.1709,0.171,0.1743,0.1748,0.1755,0.1772,0.1775,0.1784,0.1786,0.1786,0.1787,0,0,0,0,0,0,0,0.1523,0.1531,0.1612,0.1619,0.1624,0.1628,0.1637,0.165,0.1701,0.1678,0.1682,0.1692,0.1745,0.1753,0.1757,0.1776,0.1784,0.1786,0.1787,0.1788,0.1894,0.1896,0,0,0,0,0,0,0.152,0.1528,0.161,0.1614,0.1581,0.1629,0.1639,0.1656,0.1701,0.1709,0.1691,0.1694,0.1749,0.1755,0.1759,0.184,0.1786,0.1788,0.1789,0.1892,0.1895,0.1897,0,0,0,0,0,0,0.1518,0.1527,0.1607,0.1573,0.1584,0.163,0.1649,0.1657,0.1701,0.1711,0.172,0.1731,0.175,0.1757,0.1805,0.184,0.1789,0.179,0.189,0.1893,0.1896,0.1943,0,0,0,0,0,0,0.1514,0.1526,0.1553,0.1573,0.1586,0.1643,0.1649,0.1658,0.1704,0.171,0.1747,0.1753,0.1752,0.1802,0.1806,0.1841,0.1792,0.1888,0.1892,0.1895,0.1939,0.1947,0.1954,0,0,0,0,0,0.151,0.1538,0.1554,0.1565,0.1617,0.1645,0.1652,0.1686,0.1706,0.1728,0.1758,0.1754,0.1827,0.1805,0.1809,0.1845,0.1886,0.1891,0.1895,0.1936,0.1945,0.1954,0,0,0,0,0,0,0.1506,0.1546,0.1565,0.1606,0.1635,0.1655,0.1684,0.1705,0.1746,0.1764,0.1772,0.1779,0.1834,0.1835,0.1811,0.1888,0.1858,0.1863,0.1888,0.1897,0.1904,0.1908,0.1793,0,0,0,0,0,0.1517,0.1552,0.1582,0.1619,0.1635,0.1666,0.1689,0.1713,0.1744,0.1765,0.1791,0.1822,0.1848,0.187,0.189,0.1929,0.194,0.1958,0.1966,0.1972,0.198,0.2023,0.2035,0.191,0.191,0.191,0,0,0.1525,0.1554,0.1575,0.1621,0.1647,0.1674,0.1684,0.1729,0.176,0.1764,0.1826,0.1849,0.1865,0.191,0.1936,0.192,0.2015,0.1977,0.1982,0.1986,0.2029,0.2041,0.2051,0.1913,0.1912,0.1912,0,0,0.1541,0.1586,0.1612,0.1637,0.1685,0.1706,0.1726,0.1768,0.1801,0.1854,0.1867,0.1913,0.1956,0.1973,0.1985,0.2045,0.2051,0.2062,0.2103,0.2146,0.2156,0.2165,0.2201,0.2213,0.2066,0.2067,0.2067,0,0.1549,0.1589,0.1624,0.165,0.1676,0.1723,0.175,0.1785,0.1842,0.1873,0.1885,0.1969,0.1982,0.2033,0.2059,0.2061,0.2089,0.2065,0.2154,0.2164,0.2172,0.2207,0.222,0.2069,0.2069,0.2069,0.2068,0,0.1571,0.1612,0.163,0.168,0.1713,0.1749,0.1793,0.1846,0.1896,0.1927,0.2006,0.2033,0.2086,0.2099,0.2099,0.2171,0.2173,0.2156,0.2128,0.2187,0.2221,0.2233,0.2073,0.2072,0.2071,0.2071,0,0,0.1558,0.1631,0.164,0.1665,0.1734,0.1756,0.1825,0.1888,0.1941,0.2006,0.207,0.2125,0.2159,0.2176,0.2191,0.2228,0.2311,0.2229,0.223,0.2259,0.2418,0.2284,0.2284,0.2318,0.232,0.2322,0.2419,0,0.1565,0.1609,0.1654,0.1705,0.1726,0.1794,0.1847,0.1914,0.1985,0.2061,0.2113,0.2182,0.2183,0.2227,0.2266,0.2305,0.2347,0.2287,0.2362,0.2364,0.2232,0.2294,0.233,0.2428,0.243,0.2433,0.2434,0,0.1561,0.1595,0.1641,0.1712,0.1731,0.1778,0.188,0.194,0.205,0.2106,0.2193,0.2243,0.2329,0.2313,0.2418,0.2389,0.2415,0.2432,0.2436,0.2301,0.2252,0.2356,0.2456,0.2454,0.2453,0.2451,0.245,0,0.1507,0.1582,0.1622,0.1644,0.1734,0.1784,0.1851,0.1959,0.2029,0.2157,0.2227,0.2319,0.2396,0.2446,0.2504,0.2479,0.2603,0.2563,0.2465,0.2456,0.2526,0.2515,0.263,0.263,0.263,0.263,0.263,0,0.1474,0.1507,0.1606,0.1621,0.1684,0.1763,0.1856,0.1936,0.2068,0.2145,0.226,0.2337,0.244,0.2522,0.2542,0.255,0.2641,0.2485,0.2474,0.2545,0.2535,0.2535,0.2522,0.2633,0.2633,0.2632,0.2631,0,0.1398,0.1465,0.1514,0.1618,0.1658,0.1709,0.1859,0.1916,0.2063,0.2176,0.223,0.2391,0.2493,0.2572,0.2659,0.2594,0.261,0.2587,0.2679,0.267,0.2425,0.2414,0.2477,0.2473,0.247,0.2467,0.2465,0,0.1358,0.1377,0.1495,0.1524,0.1579,0.1674,0.1729,0.1892,0.1965,0.2187,0.2225,0.2395,0.2476,0.25,0.2586,0.2617,0.2585,0.2572,0.2471,0.2427,0.2412,0.2406,0.24,0.246,0.2459,0.2458,0.2457,0,0.1279,0.1339,0.1383,0.1447,0.1511,0.1572,0.168,0.1728,0.1913,0.207,0.2173,0.2242,0.2353,0.2417,0.2466,0.2478,0.2562,0.2537,0.2542,0.2447,0.2407,0.2393,0.2391,0.2446,0.2447,0.2449,0.2449,0,0.1225,0.1247,0.1314,0.1359,0.1424,0.1444,0.1519,0.161,0.1716,0.1965,0.1996,0.2172,0.2326,0.2349,0.2395,0.2399,0.2353,0.2258,0.2277,0.229,0.2184,0.2103,0.205,0,0,0,0,0,0.1165,0.1181,0.1212,0.1252,0.1299,0.1342,0.1466,0.155,0.1744,0.1763,0.188,0.1974,0.2063,0.2166,0.2133,0.2308,0.2353,0.2258,0.2249,0.2383,0.2396,0.2287,0,0,0,0,0,0,0.1129,0.1162,0.1182,0.1144,0.1143,0.1192,0.1264,0.1387,0.1425,0.1627,0.1694,0.1848,0.197,0.2055,0.2091,0.2119,0.2072,0.2377,0.2372,0.2375,0.2387,0.2398,0.229,0,0,0,0,0]},{"header":{"parameterUnit":"m.s-1","parameterCategory":2,"la1":30.2991,"la2":30.254,"lo1":-89.0895,"lo2":-89.0444,"dy":0.0017,"dx":0.0017,"nx":28,"ny":28,"refTime":"2024-03-17T03:00:00:Z","depth":"4","parameterNumber":3,"parameterNumberName":"V-component_of_CURRENTS"},"data":[0,0,0,0,0,0,0,0,0,0,0,0,0,0,0,0,0,0,0,0,0,0,0,0,0,0,0,0,0,0,0,0,0,0,0,0,0,0,0,0,0,0,0,0,0,0,0,0,0,0,0,0,0,0,0,0,0,0,0.0144,0.0144,0,0.0104,0.0104,0.0103,0.0077,0.0077,0.0077,0.0077,0.0017,0.0015,0.0014,0,0,0,0,0,0,0,0,0,0,0,0,0,0.017,0.017,0.0144,0.0144,0.0143,0.0104,0.0104,0.0103,0.0077,0.0077,0.0077,0.0077,0.0017,0.0016,0.0014,0,0,0,0,0,0,0,0,0,0,0,0,0,0.0147,0.017,0.0144,0.0126,0.0124,0.0104,0.0104,0.0103,0.0077,0.0077,0.0077,0.0076,0.0018,0.0016,0.0014,0.0004,0,0,0.0007,0.0006,0,0,0,0,0,0,0,0,0.0149,0.0146,0.0129,0.0127,0.0125,0.0096,0.0091,0.0069,0.0077,0.0094,0.0077,0.0076,0.0042,0.0038,0.003,0.0001,-0.0002,0.0007,0.0005,0.0004,0.0004,0,0,0,0,0,0,0,0.015,0.0148,0.0128,0.0129,0.0126,0.011,0.0107,0.0086,0.0069,0.0093,0.0091,0.0087,0.004,0.0032,0.0029,-0.0002,0.0007,0.0005,0.0003,0.0002,-0.0033,-0.0033,0,0,0,0,0,0,0.0158,0.0149,0.0129,0.0127,0.0137,0.011,0.0106,0.0105,0.007,0.0064,0.0087,0.0086,0.0036,0.0031,0.0026,0.0036,0.0004,0.0002,0.0001,-0.0033,-0.0033,-0.0032,0,0,0,0,0,0,0.0158,0.0156,0.0131,0.0137,0.0133,0.011,0.0109,0.0104,0.01,0.0066,0.006,0.0088,0.0036,0.0029,0.0017,0.0033,0.0001,-0.0001,-0.0034,-0.0033,-0.0033,0.0041,0,0,0,0,0,0,0.0159,0.0157,0.016,0.0138,0.0133,0.0127,0.0109,0.0104,0.0097,0.0095,0.0064,0.0058,0.0035,0.002,0.0015,0.0029,-0.0002,-0.0034,-0.0034,-0.0033,0.0038,0.0044,0.0049,0,0,0,0,0,0.0161,0.0167,0.0161,0.0158,0.0138,0.0127,0.0123,0.0105,0.0098,0.01,0.008,0.0059,0.0021,0.0019,0.0012,0.0027,-0.0035,-0.0034,-0.0033,0.0036,0.0043,0.0049,0,0,0,0,0,0,0.0178,0.0164,0.0157,0.0159,0.0147,0.0123,0.0123,0.0111,0.0097,0.0096,0.0064,0.0057,0.005,0.0027,0.0025,0.0017,-0.0011,-0.0011,0.0044,0.005,0.0056,0.0069,-0.0004,0,0,0,0,0,0.0185,0.0187,0.0169,0.0171,0.0168,0.0147,0.0141,0.013,0.0114,0.0107,0.0085,0.0063,0.0048,0.0041,0.0019,0.0016,-0.002,0.002,0.0025,0.003,0.0035,-0.0006,-0.0003,-0.003,-0.003,-0.003,0,0,0.0191,0.0184,0.0185,0.0175,0.0165,0.0172,0.0143,0.0139,0.0148,0.0103,0.0107,0.0079,0.005,0.0047,0.0043,0.0032,0.0018,0.0031,0.0036,0.0038,-0.0005,-0.0002,0.0,-0.0029,-0.0029,-0.0029,0,0,0.021,0.0201,0.0212,0.0209,0.02,0.019,0.0192,0.0174,0.0169,0.0167,0.0139,0.0124,0.0098,0.0084,0.0074,0.0095,0.0046,0.0085,0.0129,0.009,0.0092,0.0093,0.005,0.0047,0.0092,0.0092,0.0093,0,0.0219,0.0234,0.0213,0.0226,0.0234,0.0204,0.0225,0.0215,0.0195,0.0197,0.0178,0.0143,0.0119,0.012,0.0129,0.011,0.0073,0.011,0.0098,0.0098,0.0098,0.0054,0.005,0.0096,0.0096,0.0095,0.0095,0,0.0247,0.0264,0.0272,0.0283,0.0286,0.0298,0.0287,0.0287,0.0276,0.0263,0.0255,0.0216,0.0197,0.0187,0.0167,0.016,0.0129,0.0107,0.0084,0.0105,0.0057,0.0051,0.0101,0.01,0.0099,0.0098,0,0,0.0263,0.0289,0.0294,0.0319,0.0323,0.0331,0.0348,0.0356,0.0372,0.0339,0.0352,0.0321,0.0289,0.0275,0.024,0.0209,0.0179,0.0164,0.0161,0.0128,0.0084,0.006,0.005,0.0151,0.015,0.015,0.005,0,0.0297,0.0347,0.0347,0.0398,0.0427,0.0416,0.0439,0.0439,0.0428,0.0426,0.0381,0.0374,0.0326,0.032,0.028,0.0204,0.0167,0.0208,0.0063,0.0058,0.0039,0.0044,0.0148,0.0046,0.0044,0.0043,0.0043,0,0.0329,0.0365,0.0425,0.0476,0.0487,0.0514,0.0549,0.0561,0.0546,0.0538,0.0509,0.0462,0.0418,0.0371,0.0248,0.0274,0.0188,0.0122,0.0116,0.0065,0.0024,0.0018,0.0031,0.0032,0.0033,0.0034,0.0034,0,0.0362,0.042,0.0477,0.0494,0.054,0.0573,0.0595,0.0601,0.0622,0.0604,0.0608,0.0535,0.0505,0.0388,0.0249,0.0246,0.01,0.0078,-0.0026,-0.0029,-0.001,-0.0011,-0.0011,-0.001,-0.001,-0.001,-0.001,0,0.04,0.0448,0.0505,0.0537,0.0617,0.0625,0.0692,0.07,0.0712,0.0738,0.0668,0.0659,0.0507,0.0401,0.0266,0.01,0.0109,-0.0019,-0.0055,0.0022,0.0027,-0.0015,-0.0014,-0.0014,-0.0013,-0.0012,-0.0012,0,0.0424,0.0459,0.0532,0.0603,0.0636,0.0691,0.0766,0.0805,0.0808,0.0835,0.0833,0.0748,0.0605,0.0437,0.0244,0.0132,-0.0028,-0.009,0.0006,-0.0023,-0.0136,-0.013,-0.0213,-0.0214,-0.0216,-0.0217,-0.0218,0,0.0439,0.0482,0.0581,0.0636,0.0677,0.0761,0.0822,0.0857,0.0893,0.0885,0.0897,0.0779,0.0696,0.0413,0.0226,-0.0038,-0.0076,-0.0154,-0.0145,-0.0129,-0.0156,-0.0148,-0.0141,-0.022,-0.022,-0.0221,-0.0221,0,0.0472,0.0508,0.0566,0.0681,0.0765,0.0859,0.0941,0.0972,0.0998,0.1,0.095,0.0802,0.0636,0.0411,0.0204,0.0015,-0.01,-0.017,-0.0168,-0.016,-0.0139,-0.0163,-0.0154,-0.0226,-0.0225,-0.0225,-0.0225,0,0.0494,0.054,0.0618,0.072,0.0827,0.0926,0.0968,0.101,0.1043,0.1023,0.1,0.0823,0.0723,0.0436,0.0245,0.0055,0.0004,-0.0047,-0.0052,-0.0049,0.0023,0.0074,0.0024,0,0,0,0,0,0.0516,0.0568,0.0654,0.0765,0.0869,0.0939,0.1034,0.1061,0.108,0.1055,0.103,0.0872,0.0587,0.0465,0.0269,0.0201,-0.0038,-0.0035,-0.0102,-0.0253,-0.0247,-0.0193,0,0,0,0,0,0,0.0531,0.0608,0.0649,0.0784,0.0863,0.0987,0.1053,0.107,0.1053,0.1037,0.0889,0.0821,0.0541,0.0695,0.0264,0.0205,0.0136,-0.0167,-0.0172,-0.0256,-0.0251,-0.0246,-0.0189,0,0,0,0,0]}]]